TimeEDT,TemperatureF,Dew PointF,Humidity,Sea Level PressureIn,VisibilityMPH,Wind Direction,Wind SpeedMPH,Gust SpeedMPH,PrecipitationIn,Events,Conditions,WindDirDegrees,DateUTC
12:15 AM,69.8,68.0,94,29.96,10.0,WSW,6.9,-,N/A,,Overcast,240,2013-08-13 04:15:00
12:55 AM,68.0,68.0,100,29.95,10.0,West,4.6,-,N/A,,Overcast,270,2013-08-13 04:55:00
1:15 AM,68.0,66.2,94,29.95,10.0,Calm,Calm,-,N/A,,Overcast,0,2013-08-13 05:15:00
1:35 AM,68.0,66.2,94,29.95,10.0,WSW,3.5,-,N/A,,Overcast,250,2013-08-13 05:35:00
1:55 AM,68.0,68.0,100,29.95,10.0,WSW,4.6,-,N/A,,Overcast,240,2013-08-13 05:55:00
2:15 AM,68.0,68.0,100,29.95,10.0,Calm,Calm,-,N/A,,Overcast,0,2013-08-13 06:15:00
2:35 AM,68.0,68.0,100,29.95,10.0,WSW,4.6,-,N/A,,Overcast,240,2013-08-13 06:35:00
2:55 AM,68.0,68.0,100,29.93,10.0,SW,4.6,-,N/A,,Overcast,230,2013-08-13 06:55:00
3:15 AM,68.0,68.0,100,29.93,10.0,WSW,3.5,-,N/A,,Overcast,240,2013-08-13 07:15:00
3:35 AM,68.0,68.0,100,29.93,10.0,WSW,5.8,-,N/A,,Overcast,250,2013-08-13 07:35:00
3:55 AM,68.0,68.0,100,29.92,10.0,WSW,5.8,-,N/A,,Overcast,250,2013-08-13 07:55:00
4:15 AM,68.0,68.0,100,29.92,10.0,WSW,5.8,-,N/A,,Overcast,250,2013-08-13 08:15:00
4:35 AM,68.0,68.0,100,29.92,10.0,West,3.5,-,N/A,,Overcast,270,2013-08-13 08:35:00
4:55 AM,68.0,68.0,100,29.91,10.0,West,4.6,-,N/A,,Overcast,270,2013-08-13 08:55:00
5:15 AM,68.0,68.0,100,29.91,10.0,West,3.5,-,N/A,,Overcast,280,2013-08-13 09:15:00
5:35 AM,68.0,68.0,100,29.92,10.0,West,4.6,-,N/A,,Overcast,270,2013-08-13 09:35:00
5:55 AM,68.0,68.0,100,29.92,10.0,West,6.9,-,N/A,,Overcast,280,2013-08-13 09:55:00
6:15 AM,68.0,68.0,100,29.92,10.0,West,4.6,-,N/A,,Overcast,280,2013-08-13 10:15:00
6:35 AM,68.0,68.0,100,29.93,10.0,West,4.6,-,N/A,,Overcast,270,2013-08-13 10:35:00
6:55 AM,68.0,68.0,100,29.93,10.0,WNW,4.6,-,N/A,,Overcast,290,2013-08-13 10:55:00
7:15 AM,69.8,68.0,94,29.93,10.0,WNW,4.6,-,N/A,,Overcast,290,2013-08-13 11:15:00
7:35 AM,69.8,68.0,94,29.94,10.0,WNW,3.5,-,N/A,,Overcast,300,2013-08-13 11:35:00
7:55 AM,69.8,68.0,94,29.94,7.0,WNW,3.5,-,N/A,,Overcast,300,2013-08-13 11:55:00
8:15 AM,69.8,68.0,94,29.95,7.0,West,3.5,-,N/A,,Overcast,280,2013-08-13 12:15:00
8:35 AM,69.8,68.0,94,29.95,4.0,West,3.5,-,N/A,Rain,Light Rain,280,2013-08-13 12:35:00
8:55 AM,69.8,68.0,94,29.95,7.0,Calm,Calm,-,0.01,,Overcast,0,2013-08-13 12:55:00
9:15 AM,69.8,69.8,100,29.95,7.0,Calm,Calm,-,N/A,,Overcast,0,2013-08-13 13:15:00
9:35 AM,71.6,69.8,94,29.95,10.0,Calm,Calm,-,N/A,,Overcast,0,2013-08-13 13:35:00
9:55 AM,73.4,69.8,88,29.95,10.0,NW,3.5,-,N/A,,Mostly Cloudy,310,2013-08-13 13:55:00
10:15 AM,71.6,69.8,94,29.96,10.0,WNW,5.8,-,N/A,,Overcast,300,2013-08-13 14:15:00
10:35 AM,71.6,69.8,94,29.97,10.0,WNW,4.6,-,N/A,,Overcast,300,2013-08-13 14:35:00
10:55 AM,73.4,69.8,88,29.96,10.0,West,3.5,-,N/A,,Overcast,280,2013-08-13 14:55:00
11:15 AM,73.4,69.8,88,29.97,10.0,NW,3.5,-,N/A,,Overcast,320,2013-08-13 15:15:00
11:35 AM,73.4,69.8,88,29.98,10.0,NW,3.5,-,N/A,,Overcast,320,2013-08-13 15:35:00
11:55 AM,75.2,69.8,83,29.97,10.0,West,4.6,-,N/A,,Mostly Cloudy,270,2013-08-13 15:55:00
12:15 PM,77.0,69.8,78,29.97,10.0,West,4.6,-,N/A,,Mostly Cloudy,260,2013-08-13 16:15:00
12:35 PM,75.2,68.0,78,29.97,10.0,NW,4.6,-,N/A,,Overcast,310,2013-08-13 16:35:00
12:55 PM,73.4,68.0,83,29.97,10.0,NNW,3.5,-,N/A,,Light Drizzle,330,2013-08-13 16:55:00
1:15 PM,77.0,69.8,78,29.96,10.0,NW,4.6,-,N/A,,Mostly Cloudy,310,2013-08-13 17:15:00
1:35 PM,75.2,69.8,83,29.96,10.0,WNW,5.8,-,N/A,,Overcast,300,2013-08-13 17:35:00
1:55 PM,77.0,69.8,78,29.95,10.0,WNW,4.6,-,N/A,,Mostly Cloudy,290,2013-08-13 17:55:00
2:15 PM,78.8,68.0,69,29.95,10.0,NNW,4.6,-,N/A,,Mostly Cloudy,340,2013-08-13 18:15:00
2:35 PM,77.0,68.0,74,29.95,10.0,North,6.9,-,N/A,,Mostly Cloudy,360,2013-08-13 18:35:00
2:55 PM,77.0,68.0,74,29.95,7.0,NNW,5.8,-,N/A,,Mostly Cloudy,330,2013-08-13 18:55:00
3:15 PM,77.0,68.0,74,29.95,10.0,North,10.4,16.1,N/A,,Mostly Cloudy,10,2013-08-13 19:15:00
3:35 PM,77.0,68.0,74,29.95,10.0,North,9.2,-,N/A,,Mostly Cloudy,360,2013-08-13 19:35:00
3:55 PM,77.0,66.2,69,29.95,10.0,NNE,9.2,-,N/A,,Mostly Cloudy,20,2013-08-13 19:55:00
4:15 PM,75.2,64.4,69,29.95,10.0,North,9.2,-,N/A,,Mostly Cloudy,10,2013-08-13 20:15:00
4:35 PM,77.0,64.4,65,29.95,10.0,North,6.9,-,N/A,,Mostly Cloudy,10,2013-08-13 20:35:00
4:55 PM,77.0,62.6,61,29.95,10.0,North,6.9,-,N/A,,Scattered Clouds,360,2013-08-13 20:55:00
5:15 PM,77.0,64.4,65,29.96,10.0,North,9.2,-,N/A,,Clear,360,2013-08-13 21:15:00
5:35 PM,75.2,64.4,69,29.96,10.0,North,5.8,-,N/A,,Clear,10,2013-08-13 21:35:00
5:55 PM,75.2,64.4,69,29.96,10.0,North,4.6,-,N/A,,Scattered Clouds,360,2013-08-13 21:55:00
6:15 PM,77.0,64.4,65,29.96,10.0,NNE,5.8,-,N/A,,Mostly Cloudy,20,2013-08-13 22:15:00
6:35 PM,73.4,64.4,73,29.96,10.0,NNE,4.6,-,N/A,,Mostly Cloudy,20,2013-08-13 22:35:00
6:55 PM,73.4,64.4,73,29.96,10.0,NNE,4.6,-,N/A,,Mostly Cloudy,30,2013-08-13 22:55:00
7:55 PM,71.6,62.6,73,29.97,10.0,NNE,3.5,-,N/A,,Clear,30,2013-08-13 23:55:00
8:15 PM,71.6,62.6,73,29.98,10.0,NNE,3.5,-,N/A,,Clear,30,2013-08-14 00:15:00
8:35 PM,69.8,62.6,78,29.98,10.0,NNE,4.6,-,N/A,,Clear,30,2013-08-14 00:35:00
8:55 PM,69.8,62.6,78,29.99,10.0,NE,3.5,-,N/A,,Scattered Clouds,50,2013-08-14 00:55:00
9:15 PM,69.8,60.8,73,29.99,10.0,NNE,5.8,-,N/A,,Scattered Clouds,30,2013-08-14 01:15:00
9:35 PM,68.0,60.8,78,30.00,10.0,Calm,Calm,-,N/A,,Clear,0,2013-08-14 01:35:00
9:55 PM,68.0,60.8,78,30.01,10.0,NE,3.5,-,N/A,,Clear,40,2013-08-14 01:55:00
10:15 PM,66.2,60.8,83,30.02,10.0,NNE,3.5,-,N/A,,Mostly Cloudy,30,2013-08-14 02:15:00
10:35 PM,66.2,59.0,78,30.03,10.0,NNE,6.9,-,N/A,,Scattered Clouds,20,2013-08-14 02:35:00
10:55 PM,66.2,59.0,78,30.03,10.0,NNE,8.1,-,N/A,,Mostly Cloudy,20,2013-08-14 02:55:00
11:15 PM,66.2,59.0,78,30.04,10.0,NNE,6.9,-,N/A,,Mostly Cloudy,30,2013-08-14 03:15:00
11:35 PM,66.2,59.0,78,30.05,10.0,NNE,8.1,-,N/A,,Overcast,20,2013-08-14 03:35:00
11:55 PM,64.4,57.2,77,30.05,10.0,NNE,5.8,-,N/A,,Mostly Cloudy,30,2013-08-14 03:55:00